Miscellaneous Local Product
Issued by NWS North Platte, NE

Home | Current Version | Previous Version | Text Only | Print | Product List | Glossary On
Versions: 1 2 3 4 5 6 7 8 9 10 11 12 13 14 15 16 17 18 19 20 21 22 23 24 25 26 27 28 29 30 31 32 33 34 35 36 37 38 39 40 41 42 43 44 45 46 47 48 49 50
000
AXUS43 KLBF 231210
MISLBF


WESTERN AND NORTH CENTRAL NEBRASKA HOURLY WEATHER ROUNDUP
NATIONAL WEATHER SERVICE NORTH PLATTE NE
600 AM CST MON JAN 23 2017

NOTE: "FAIR" INDICATES FEW OR NO CLOUDS BELOW 12,000 FEET WITH NO
SIGNIFICANT WEATHER AND/OR OBSTRUCTIONS TO VISIBILITY.

NOTE: STATIONS NOT REPORTING VARIABLES SUCH AS SKY/WEATHER OR
PRESSURE ARE PROVIDED BY RAWS AND APRS NETWORKS AND ARE NOT UNDER
NATIONAL WEATHER SERVICE QUALITY CONTROL.

...OBSERVATIONS IN AND NEAR THE EASTERN PANHANDLE OF NEBRASKA...

CITY           SKY/WX    TMP DP  RH WIND       PRES   REMARKS
PINE RIDGE     CLOUDY    28  20  71 SW5       29.69F WCI  23
CHADRON        CLOUDY    26  19  74 S6        29.68F WCI  19
ALLIANCE       CLOUDY    28  22  78 S7        29.69F WCI  21
SIDNEY         CLOUDY    31  21  66 SE10      29.68F WCI  22
CRESCENT LAKE    N/A     27  22  82 SE5         N/A  WCI  22
$$

...OBSERVATIONS IN NORTHERN NEBRASKA AND FAR SOUTHERN SOUTH DAKOTA...

CITY           SKY/WX    TMP DP  RH WIND       PRES   REMARKS
WINNER         FOG       25  23  92 SE7       29.82F VSB 1   WCI  17
VALENTINE      PTCLDY    19  16  88 NE3       29.77F
THEDFORD       CLOUDY    25  23  94 CALM      29.78F
AINSWORTH      PTCLDY    21  21  98 CALM      29.79R
O`NEILL        FOG       26  26  99 CALM      29.85R VSB 1
ORD            CLOUDY    21  18  88 CALM      29.84S
BROKEN BOW     CLEAR     27  25  92 CALM      29.81R
VALENTINE NWR    N/A     23  20  89 CALM        N/A
BUTTE            N/A     25  24  93 CALM        N/A
HALSEY           N/A     25  21  85 S3          N/A
CHAMBERS         N/A     24  22  91 S3          N/A
EWING            N/A     26  25  94 CALM        N/A
$$

...OBSERVATIONS IN SOUTHWEST NEBRASKA AND FAR NORTHEAST COLORADO...

CITY           SKY/WX    TMP DP  RH WIND       PRES   REMARKS
WRAY           FAIR      32  25  74 E6        29.73F WCI  26
HOLYOKE        FAIR      32  27  80 SE7       29.72F WCI  26
IMPERIAL       PTCLDY    30  25  81 SE6       29.76F WCI  24
OGALLALA       CLOUDY    30  27  86 CALM      29.74F
NORTH PLATTE   MOCLDY    23  19  85 CALM      29.79F
MCCOOK         PTCLDY    24  22  91 CALM      29.80F
LEXINGTON      CLOUDY    27  25  92 CALM      29.82R
STAPLETON        N/A     23  21  93 CALM        N/A
GOTHENBURG       N/A     28  24  84 CALM        N/A
CALLAWAY         N/A     29  27  90 S5          N/A  WCI  24
$$

...OBSERVATIONS IN CENTRAL LINCOLN COUNTY AREA...

CITY           SKY/WX    TMP DP  RH WIND       PRES   REMARKS
N.P. AIRPORT   MOCLDY    23  19  85 CALM      29.79F
N.P. DOWNTOWN    N/A     25  23  93 CALM        N/A
N.P. SOUTHEAST   N/A     24  22  93 CALM        N/A
N.P. HILLCREST   N/A     27  24  89 E3          N/A
$$

...SOME OBSERVATIONS FROM AROUND THE REGION...

CITY           SKY/WX    TMP DP  RH WIND       PRES   REMARKS
LARAMIE        CLOUDY    26  19  74 S8        29.63F WCI  18
CHEYENNE       CLOUDY    25  14  63 CALM      29.64F
DENVER         CLOUDY    26  18  71 SW7       29.67R WCI  18
AKRON          CLOUDY    29  21  72 S12       29.66F WCI  19
SCOTTSBLUFF    CLOUDY    28  21  75 E5        29.68F WCI  23
RAPID CITY     CLOUDY    21  19  92 SE9       29.68F WCI  11
BISMARCK       CLOUDY    30  23  75 NW3       29.79F
PIERRE         CLOUDY    26  22  84 SE6       29.80F WCI  19
SIOUX FALLS    FLURRIES  31  29  92 NW7       29.84F WCI  24
OMAHA          CLOUDY    32  26  78 NW7       29.89S WCI  26
GRAND ISLAND   PTCLDY    25  25 100 E8        29.86F WCI  16
KANSAS CITY    FOG       31  29  92 NW6       29.89F VSB 1/8 WCI  25
WICHITA        CLEAR     27  26  96 S3        29.91S
OKLAHOMA CITY  CLOUDY    32  28  85 CALM      29.92F
DALLAS         CLEAR     42  34  73 NW5       29.96R
AMARILLO       CLOUDY    36  25  64 S10       29.85F WCI  28
DODGE CITY     CLOUDY    29  24  82 SW7       29.84F WCI  22
HAYS           PTCLDY    24  23  96 CALM      29.85F
GOODLAND       CLOUDY    29  25  85 S8        29.75S WCI  21
$$




USA.gov is the U.S. government's official web portal to all federal, state and local government web resources and services.